Location: �quirre
(50.4736°N, 2.2351°E)
Time: 05:15:52
(UTC+00:00)

CZ-4 R/B - Pass Details

Date: 07 August 2020
Orbit: 682 x 752 km, 98.5° (Epoch: 23 September)

Event Time Altitude Azimuth Distance (km) Brightness Sun altitude
Rises 00:57:12 0° 11° (N) 3,177 8.7 -21.9°
Reaches altitude 10° 00:59:30 10° 7° (N) 2,259 7.6 -21.8°
Maximum altitude 01:04:21 55° 291° (WNW) 901 4.3 -21.6°
Enters shadow 01:05:45 41° 241° (WSW) 1,082 4.4 -21.5°
